sat.trackr.live / text

‹ back to catalog

TIANMU-1 17

NORAD 58702 · 2024-004C

PAYLOAD ACTIVE UNKNOWN

§ Identity

Operator
Country
PRC
Launch date
2024-01-05
Launch site
JSC
Launch vehicle
Mass (kg)
RCS (m²)

Purposes: earth_obs

External: N2YO · Heavens-Above · Gunter

§ Orbital elements

Epoch: 2026-05-25T04:44:38.346720Z

Period
94.34 min
Inclination
97.4651°
Eccentricity
0.0007118
Mean motion
15.26472598 rev/d
Perigee alt
481.5 km
Apogee alt
491.3 km
Semi-major
6,864.5 km
B*
2.0659e-4
RAAN
331.1273°
Arg perigee
82.6471°
Mean anomaly
277.5576°
Rev number
13,226

§ Raw data

TIANMU-1 171 58702U 24004C   26145.19766605  .00005317  00000+0  20659-3 0  99902 58702  97.4651 331.1273 0007118  82.6471 277.5576 15.26472598132263

JSON: /api/v1/satellites/58702 · /tle

For live sub-satellite position, see the globe view (requires WebGL).

§ Visibility from observer

Set your observer location to see the next 7 days of passes ≥ 10°. The values pass through the URL so the page stays shareable.

No JS? Fill the form by hand. The geolocation button needs JavaScript.